This is the latest recevied weather packets stored in our database for station/object N4BBA. If no packets are shown the sender has not sent any weather packets the latest 10 day(s).
| Time | Temp. | Humidity | Pressure | Rain* | Wind** | Luminosity | Snow |
|---|---|---|---|---|---|---|---|
| 1777908299 | 21.67° C | 50% | 1016.4 hPa | 0 mm | - | 735 W/m² | - |
| 1777907995 | 21.67° C | 50% | 1016.2 hPa | 0 mm | - | 726 W/m² | - |
| 1777907691 | 21.67° C | 51% | 1016.4 hPa | 0 mm | - | 718 W/m² | - |
| 1777907387 | 21.67° C | 54% | 1016.3 hPa | 0 mm | - | 707 W/m² | - |
| 1777907083 | 21.11° C | 56% | 1016.3 hPa | 0 mm | - | 695 W/m² | - |
| 1777906781 | 21.11° C | 55% | 1016.5 hPa | 0 mm | - | 683 W/m² | - |
| 1777906478 | 20.56° C | 56% | 1016.4 hPa | 0 mm | - | 675 W/m² | - |
| 1777906174 | 20.56° C | 57% | 1016.3 hPa | 0 mm | - | 663 W/m² | - |
| 1777905871 | 20.56° C | 58% | 1016.5 hPa | 0 mm | - | 650 W/m² | - |
| 1777905568 | 20° C | 59% | 1016.6 hPa | 0 mm | - | 638 W/m² | - |
| 1777905265 | 20° C | 60% | 1016.5 hPa | 0 mm | - | 626 W/m² | - |
| 1777904962 | 19.44° C | 61% | 1016.8 hPa | 0 mm | - | 612 W/m² | - |
| 1777904660 | 19.44° C | 61% | 1016.5 hPa | 0 mm | - | 599 W/m² | - |
| 1777904356 | 19.44° C | 64% | 1016.5 hPa | 0 mm | - | 584 W/m² | - |
| 1777904053 | 18.89° C | 65% | 1016.5 hPa | 0 mm | - | 571 W/m² | - |
| 1777903750 | 18.89° C | 67% | 1016.7 hPa | 0 mm | - | 556 W/m² | - |
| 1777903446 | 18.89° C | 69% | 1016.8 hPa | 0 mm | - | 540 W/m² | - |
| 1777903143 | 18.89° C | 70% | 1016.6 hPa | 0 mm | - | 527 W/m² | - |
| 1777902839 | 17.78° C | 72% | 1016.6 hPa | 0 mm | - | 515 W/m² | - |
| 1777902536 | 17.22° C | 73% | 1016.6 hPa | 0 mm | - | 501 W/m² | - |
| 1777902233 | 17.78° C | 74% | 1016.7 hPa | 0 mm | - | 484 W/m² | - |
| 1777901931 | 17.22° C | 75% | 1016.7 hPa | 0 mm | - | 470 W/m² | - |
| 1777901629 | 17.22° C | 76% | 1016.6 hPa | 0 mm | - | 452 W/m² | - |
| 1777901326 | 17.22° C | 79% | 1016.8 hPa | 0 mm | - | 436 W/m² | - |
| 1777901023 | 17.22° C | 80% | 1016.6 hPa | 0 mm | - | 421 W/m² | - |
* Rain latest hour (hover to see other rain measurements)
** Current wind speed in m/s (hover to see current wind gust speed)